Weather History for KTUP - December, 2012

Change the Weather History Date:

Sunday, December 30, 2012

  Actual Average Record
Temperature  
Mean Temperature 33 °F 42 °F  
Max Temperature 45 °F 51 °F 77 °F (1984)
Min Temperature 21 °F 32 °F 7 °F (1983)
Degree Days  
Heating Degree Days 32 23  
Month to date heating degree days 445 628  
Since 1 July heating degree days 1064 1150  
Cooling Degree Days 0 0  
Month to date cooling degree days 1 0  
Year to date cooling degree days 2203 2044  
Moisture  
Dew Point 24 °F    
Average Humidity 68    
Maximum Humidity 92    
Minimum Humidity 43    
Precipitation  
Precipitation 0.00 in 0.16 in 3.82 in (1969)
Month to date precipitation 7.00 6.11  
Year to date precipitation 49.68 54.84  
Snow  
Snow 0.00 in 0.00 in 0.00 in (2001)
Month to date snowfall T 0.3  
Since 1 July snowfall T 0.3  
Snow Depth 0.00 in    
Sea Level Pressure  
Sea Level Pressure 30.46 in    
Wind  
Wind Speed 2 mph (NE)    
Max Wind Speed 8 mph    
Max Gust Speed 10 mph    
Visibility 9 miles    
Events      
T = Trace of Precipitation, MM = Missing Value Source: NWS Daily Summary

Daily Weather History Graph

Daily Weather History Graph

Search for Another Location

Airport or City:

Trip Planner

Search our weather history database for the weather conditions in past years. The results will help you decide how hot, cold, wet, or windy it might be!

Date:

Astronomy

Dec. 30, 2012 Rise Set
Actual Time 7:00 AM CST 4:55 PM CST
Civil Twilight 6:33 AM CST 5:22 PM CST
Nautical Twilight 6:01 AM CST 5:54 PM CST
Astronomical Twilight 5:31 AM CST 6:24 PM CST
Moon 7:19 PM CST (12/30) 8:15 AM CST (12/30)
Length of Visible Light 10h 49m
Length of Day
9h 54m
Waning Gibbous, 95% of the Moon is Illuminated
Dec 30
Waning Gibbous
Jan 4
Last Quarter
Jan 11
New
Jan 18
First Quarter
Jan 26
Full

Hourly Weather History & Observations

Time (CST) Temp. Windchill Dew Point Humidity Pressure Visibility Wind Dir Wind Speed Gust Speed Precip Events Conditions
12:53 AM 25.0 °F - 21.9 °F 88% 30.42 in 9.0 mi Calm Calm - N/A   Clear
1:53 AM 25.0 °F - 21.9 °F 88% 30.44 in 7.0 mi Calm Calm - N/A   Clear
2:53 AM 25.0 °F - 21.0 °F 85% 30.46 in 9.0 mi Calm Calm - N/A   Clear
3:53 AM 24.1 °F - 19.9 °F 84% 30.48 in 7.0 mi Calm Calm - N/A   Clear
4:53 AM 21.0 °F 12.4 °F 19.0 °F 92% 30.46 in 7.0 mi NNE 6.9 mph - N/A   Clear
5:53 AM 23.0 °F - 19.9 °F 88% 30.49 in 7.0 mi Calm Calm - N/A   Clear
6:53 AM 21.9 °F - 19.9 °F 92% 30.53 in 6.0 mi Calm Calm - N/A   Clear
7:53 AM 25.0 °F - 21.9 °F 88% 30.53 in 5.0 mi Calm Calm - N/A   Clear
8:53 AM 30.0 °F 25.2 °F 24.1 °F 79% 30.56 in 9.0 mi NE 4.6 mph - N/A   Clear
9:53 AM 34.0 °F 29.8 °F 25.0 °F 70% 30.56 in 10.0 mi East 4.6 mph - N/A   Clear
10:53 AM 36.0 °F 32.1 °F 23.0 °F 59% 30.55 in 10.0 mi Variable 4.6 mph - N/A   Clear
11:53 AM 39.0 °F 34.8 °F 21.0 °F 49% 30.50 in 10.0 mi ENE 5.8 mph - N/A   Clear
12:53 PM 42.1 °F 39.2 °F 21.9 °F 45% 30.47 in 10.0 mi North 4.6 mph - N/A   Clear
1:53 PM 42.1 °F - 23.0 °F 47% 30.45 in 10.0 mi Calm Calm - N/A   Clear
2:53 PM 43.0 °F 39.5 °F 24.1 °F 47% 30.46 in 10.0 mi North 5.8 mph - N/A   Clear
3:53 PM 43.0 °F - 24.1 °F 47% 30.45 in 10.0 mi Calm Calm - N/A   Clear
4:53 PM 39.9 °F 37.8 °F 27.0 °F 60% 30.43 in 10.0 mi NNE 3.5 mph - N/A   Clear
5:53 PM 37.0 °F - 27.0 °F 67% 30.44 in 10.0 mi Calm Calm - N/A   Clear
6:53 PM 35.1 °F - 27.0 °F 72% 30.43 in 10.0 mi Calm Calm - N/A   Clear
7:53 PM 35.1 °F - 28.0 °F 76% 30.43 in 10.0 mi Calm Calm - N/A   Clear
8:53 PM 35.1 °F - 28.9 °F 78% 30.41 in 10.0 mi Calm Calm - N/A   Clear
9:53 PM 34.0 °F - 28.0 °F 79% 30.40 in 10.0 mi Calm Calm - N/A   Clear
10:53 PM 34.0 °F - 28.9 °F 82% 30.39 in 10.0 mi Calm Calm - N/A   Clear
11:53 PM 34.0 °F - 30.0 °F 85% 30.37 in 10.0 mi Calm Calm - N/A   Clear